TimeHST,TemperatureF,Dew PointF,Humidity,Sea Level PressureIn,VisibilityMPH,Wind Direction,Wind SpeedMPH,Gust SpeedMPH,PrecipitationIn,Events,Conditions,WindDirDegrees,DateUTC
12:53 AM,77.0,64.9,66,30.02,10.0,East,10.4,-,N/A,,Mostly Cloudy,80,2013-07-28 10:53:00
1:53 AM,75.9,66.9,74,30.01,10.0,ENE,12.7,-,0.00,Rain,Light Rain,60,2013-07-28 11:53:00
2:53 AM,77.0,66.0,69,29.99,10.0,ENE,15.0,-,0.00,,Mostly Cloudy,70,2013-07-28 12:53:00
3:53 AM,75.0,64.9,71,29.99,10.0,East,4.6,-,N/A,,Mostly Cloudy,90,2013-07-28 13:53:00
4:53 AM,75.9,64.9,69,29.99,10.0,ENE,10.4,-,N/A,,Scattered Clouds,60,2013-07-28 14:53:00
5:53 AM,75.9,64.9,69,30.00,10.0,East,8.1,-,N/A,,Mostly Cloudy,90,2013-07-28 15:53:00
6:53 AM,73.0,69.1,87,30.01,10.0,ESE,3.5,-,0.00,,Mostly Cloudy,120,2013-07-28 16:53:00
7:53 AM,77.0,66.9,71,30.02,10.0,East,6.9,-,N/A,,Scattered Clouds,80,2013-07-28 17:53:00
8:53 AM,75.9,66.0,71,30.03,10.0,ENE,11.5,-,0.00,,Mostly Cloudy,60,2013-07-28 18:53:00
9:53 AM,80.1,64.0,58,30.02,10.0,ENE,8.1,17.3,N/A,,Mostly Cloudy,60,2013-07-28 19:53:00
10:53 AM,82.0,64.0,54,30.01,10.0,East,11.5,17.3,N/A,,Mostly Cloudy,80,2013-07-28 20:53:00
11:53 AM,84.0,61.0,46,29.99,10.0,ENE,9.2,18.4,N/A,,Scattered Clouds,60,2013-07-28 21:53:00
12:53 PM,87.1,61.0,41,29.97,10.0,ENE,15.0,19.6,N/A,,Scattered Clouds,60,2013-07-28 22:53:00
1:53 PM,86.0,63.0,46,29.96,10.0,NE,16.1,20.7,N/A,,Scattered Clouds,50,2013-07-28 23:53:00
2:53 PM,86.0,64.0,48,29.95,10.0,NNE,17.3,23.0,N/A,,Scattered Clouds,20,2013-07-29 00:53:00
3:53 PM,86.0,64.0,48,29.94,10.0,NE,17.3,26.5,N/A,,Scattered Clouds,50,2013-07-29 01:53:00
4:53 PM,84.0,64.9,53,29.94,10.0,NNE,17.3,25.3,N/A,,Scattered Clouds,30,2013-07-29 02:53:00
5:53 PM,84.0,66.0,55,29.94,10.0,ENE,8.1,-,N/A,,Scattered Clouds,60,2013-07-29 03:53:00
6:53 PM,81.0,66.9,62,29.94,10.0,NE,9.2,-,N/A,,Scattered Clouds,50,2013-07-29 04:53:00
7:53 PM,80.1,69.1,69,29.96,10.0,ENE,13.8,18.4,N/A,,Mostly Cloudy,60,2013-07-29 05:53:00
8:53 PM,79.0,69.1,72,29.96,10.0,ENE,5.8,-,N/A,,Partly Cloudy,60,2013-07-29 06:53:00
9:53 PM,79.0,70.0,74,29.97,10.0,ENE,10.4,-,N/A,,Partly Cloudy,70,2013-07-29 07:53:00
10:53 PM,78.1,70.0,76,29.97,10.0,NE,11.5,20.7,N/A,,Partly Cloudy,50,2013-07-29 08:53:00
11:53 PM,78.1,71.1,79,29.96,10.0,ENE,12.7,17.3,N/A,,Scattered Clouds,60,2013-07-29 09:53:00